Clarksburg, WV

11:00 AM EST on December 15, 2017 (GMT -0500)
Benedum

Weather History for KCKB - November, 2013

Change the Weather History Date:

Sunday, November 10, 2013

  Actual Average Record
Temperature  
Mean Temperature 44 °F -  
Max Temperature 52 °F 56 °F 77 °F (1977)
Min Temperature 34 °F 34 °F 20 °F (1929)
Degree Days  
Heating Degree Days 22    
Moisture  
Dew Point 27 °F    
Average Humidity 50    
Maximum Humidity 70    
Minimum Humidity 34    
Precipitation  
Precipitation 0.00 in - - ()
Sea Level Pressure  
Sea Level Pressure 30.17 in    
Wind  
Wind Speed 12 mph (West)    
Max Wind Speed 18 mph    
Max Gust Speed 31 mph    
Visibility 10 miles    
Events      
Averages and records for this station are not official NWS values.
T = Trace of Precipitation, MM = Missing Value Source: NWS Daily Summary

Daily Weather History Graph

Daily Weather History Graph

Search for Another Location

Airport or City:

Trip Planner

Search our weather history database for the weather conditions in past years. The results will help you decide how hot, cold, wet, or windy it might be!

Date:

Astronomy

Nov. 10, 2013 Rise Set
Actual Time 6:59 AM EST 5:10 PM EST
Civil Twilight 6:30 AM EST 5:38 PM EST
Nautical Twilight 5:58 AM EST 6:10 PM EST
Astronomical Twilight 5:27 AM EST 6:42 PM EST
Moon 1:12 PM EST (11/10) No Moon Set
Length of Visible Light 11h 07m
Length of Day
10h 11m
First Quarter, 55% of the Moon is Illuminated
Nov 10
First Quarter
Nov 17
Full
Nov 25
Last Quarter
Dec 2
New
Dec 9
First Quarter

Hourly Weather History & Observations

Time (EST) Temp. Windchill Dew Point Humidity Pressure Visibility Wind Dir Wind Speed Gust Speed Precip Events Conditions
12:53 AM 52.0 °F - 24.1 °F 34% 30.05 in 10.0 mi WSW 13.8 mph 23.0 mph N/A   Overcast
1:53 AM 50.0 °F - 26.1 °F 39% 30.04 in 10.0 mi WSW 10.4 mph 19.6 mph N/A   Partly Cloudy
2:53 AM 48.9 °F - 28.0 °F 44% 30.04 in 10.0 mi SW 9.2 mph - N/A   Clear
3:53 AM 48.0 °F - 28.0 °F 46% 30.05 in 10.0 mi SW 13.8 mph - N/A   Clear
4:53 AM 46.9 °F - 28.9 °F 50% 30.05 in 10.0 mi SW 10.4 mph - N/A   Clear
5:53 AM 46.9 °F - 30.9 °F 54% 30.06 in 10.0 mi WSW 12.7 mph - N/A   Clear
6:53 AM 46.0 °F 39.9 °F 32.0 °F 58% 30.08 in 10.0 mi WSW 13.8 mph 20.7 mph N/A   Clear
7:53 AM 46.9 °F - 33.1 °F 59% 30.09 in 10.0 mi WSW 13.8 mph 23.0 mph N/A   Clear
8:53 AM 48.0 °F - 33.1 °F 56% 30.10 in 10.0 mi West 13.8 mph 21.9 mph N/A   Mostly Cloudy
9:53 AM 50.0 °F - 32.0 °F 50% 30.10 in 10.0 mi West 11.5 mph 28.8 mph N/A   Mostly Cloudy
10:53 AM 50.0 °F - 28.9 °F 44% 30.13 in 10.0 mi WNW 15.0 mph 31.1 mph N/A   Mostly Cloudy
11:53 AM 46.9 °F - 30.9 °F 54% 30.14 in 10.0 mi NW 17.3 mph 26.5 mph N/A   Overcast
12:53 PM 46.9 °F - 26.1 °F 44% 30.16 in 10.0 mi NW 18.4 mph 24.2 mph N/A   Mostly Cloudy
1:53 PM 46.0 °F 39.3 °F 24.1 °F 42% 30.18 in 10.0 mi NW 16.1 mph 28.8 mph N/A   Scattered Clouds
2:53 PM 45.0 °F 37.9 °F 23.0 °F 42% 30.20 in 10.0 mi WNW 16.1 mph - N/A   Mostly Cloudy
3:53 PM 45.0 °F 38.9 °F 24.1 °F 44% 30.22 in 10.0 mi WNW 12.7 mph 20.7 mph N/A   Mostly Cloudy
4:53 PM 44.1 °F 38.6 °F 23.0 °F 43% 30.25 in 10.0 mi NW 10.4 mph - N/A   Partly Cloudy
5:53 PM 42.1 °F 39.2 °F 24.1 °F 49% 30.27 in 10.0 mi West 4.6 mph - N/A   Mostly Cloudy
6:53 PM 42.1 °F 36.6 °F 24.1 °F 49% 30.30 in 10.0 mi WNW 9.2 mph - N/A   Mostly Cloudy
7:53 PM 42.1 °F 38.4 °F 25.0 °F 51% 30.31 in 10.0 mi WNW 5.8 mph - N/A   Overcast
8:53 PM 39.9 °F 36.7 °F 25.0 °F 55% 30.31 in 10.0 mi West 4.6 mph - N/A   Scattered Clouds
9:53 PM 39.0 °F - 24.1 °F 55% 30.31 in 10.0 mi Calm Calm - N/A   Clear
10:53 PM 35.1 °F 32.2 °F 24.1 °F 64% 30.32 in 10.0 mi SW 3.5 mph - N/A   Clear
11:53 PM 34.0 °F - 25.0 °F 70% 30.32 in 10.0 mi Calm Calm - N/A   Clear